Other Public Products
Issued by NWS Grand Forks, ND

Home | Current Version | Previous Version | Graphics & Text | Print | Product List | Glossary On
Versions: 1 2 3 4 5 6 7 8 9 10 11 12 13 14 15 16 17 18 19 20 21 22 23 24 25 26 27 28 29 30 31 32 33 34 35 36 37 38 39 40 41 42 43 44 45 46 47 48 49 50
000
FPUS83 KFGF 071331
OPUFGF
PRAIRIE TO PINES WEATHER ROUNDUP
NATIONAL WEATHER SERVICE EASTERN NORTH DAKOTA/GRAND FORKS ND
700 AM CST WED DEC 07 2016

 **SATELLITE DATA USED TO AUGMENT SKY COVER AT AUTOMATED STATIONS**
 *****  WEATHER ACROSS EASTERN NORTH DAKOTA  *****

CITY           SKY/WX    TMP DP  RH WIND       PRES   REMARKS
GRAND FORKS    LGT SNOW  15  10  80 NW28G33   29.89R BLWGSNOWWCI  -5
GRAND FORKS AF LGT SNOW  14   9  79 NW26G36   29.90R WCI  -6
GRAND CITY NWS   N/A     14 N/A N/A NW13        N/A  WCI   0
BUXTON           N/A     35  34  96 W20         N/A  WCI  24
DEVILS LAKE    LGT SNOW   9   5  85 NW33G40   29.94S FOG     WCI -15
FARGO          CLOUDY    13   6  74 W23G32    29.97R WCI  -6
WAHPETON ARPT  CLOUDY    12   5  73 W25G35    30.01S WCI  -8
$$

 *****  WEATHER ACROSS CENTRAL AND WESTERN NORTH DAKOTA  *****

CITY           SKY/WX    TMP DP  RH WIND       PRES   REMARKS
JAMESTOWN      LGT SNOW   9   5  84 NW30G38   30.01R FOG     WCI -14
BISMARCK       CLOUDY     6   1  80 NW24G32   30.20R WCI -16
MINOT          LGT SNOW   5   0  79 W32G40    30.12R WCI -20
MINOT AFB      LGT SNOW   3   0  85 NW36G46   30.11R VSB 3/4 WCI -23
GARRISON         N/A      2  -3  80 NW29G41   30.15R WCI -23
WILLISTON      CLOUDY     0  -8  69 NW20G26   30.32R WCI -22
DICKINSON      MIX PCPN   2  -4  76 NW26      30.19R WCI -22
HETTINGER      CLOUDY     2  -4  76 NW24      30.21R WCI -21
$$

 *****  OTHER OBSERVATIONS NORTHEAST NORTH DAKOTA  *****

CITY           SKY/WX    TMP DP  RH WIND       PRES   REMARKS
WALHALLA       LGT SNOW  14  14 100 NW18G32   29.87R WCI  -3
LANGDON        LGT SNOW  10   9  92 NW30G39   29.87R VSB 1   WCI -12
CAVALIER         N/A     16  10  79 NW28G38   29.85R WCI  -4
GRAFTON        FAIR      16  12  86 NW29G35   29.88R WCI  -4
CANDO          CLOUDY     9   5  85 NW24G30   29.98R WCI -12
FORT TOTTEN      N/A     10   8  93 NW15      29.95S WCI  -7
ROLLA          SNOW       9   9 100 NW35G45   29.93R VSB 1/2 WCI -15
RUGBY            N/A      5   1  85 NW31      30.03R FOG     WCI -19
 ***** THE ABOVE OBSERVATIONS ARE NON NWS ARE NOT QUALITY
        CONTROLLED AND MAY MIS-REPORT RAIN FOR SNOW...
$$

 *****  OTHER OBSERVATIONS SOUTHEAST NORTH DAKOTA *****

CITY           SKY/WX    TMP DP  RH WIND       PRES   REMARKS
COOPERSTOWN    LGT SNOW   9   5  85 W32G40    29.95R WCI -15
VALLEY CITY    LGT SNOW   9   7  92 NW29G43   29.99R WCI -14
OAKES          NOT AVBL
GWINNER        CLOUDY    12   9  85 W20G28    30.04S WCI  -6
SHEYENNE NWR     N/A     11   4  72 W16       29.95S WCI  -6
BUFFALO          N/A     10   5  80 N28G40      N/A  WCI -12
WYNDMERE         N/A     10   7  85 W25         N/A  WCI -10
 ***** THE ABOVE OBSERVATIONS ARE NON NWS ARE NOT QUALITY
       CONTROLLED AND MAY MIS-REPORT RAIN FOR SNOW...
$$

  *****  WEATHER ACROSS NORTHERN MINNESOTA  *****

CITY           SKY/WX    TMP DP  RH WIND       PRES   REMARKS
FLAG ISLAND    CLOUDY    25  21  86 NW20G25   29.62R WCI  11
WARROAD        CLOUDY    21  18  86 W13       29.66R FOG     WCI   9
ROSEAU         CLOUDY    21  18  86 W17G25    29.70R WCI   7
HALLOCK        CLOUDY    18  16  93 NW26G35   29.80R FOG     WCI  -1
THF RVR FALLS  LGT SNOW  14  10  85 W22       29.81R FOG     WCI  -4
HALSTAD          N/A     14   9  79 NW28        N/A  WCI  -6
FOSSTON        LGT SNOW  12  10  92 W18G30    29.82R WCI  -5
BAUDETTE       LGT SNOW  21  17  84 W16G23    29.63R FOG     WCI   7
WASKISH        CLOUDY    19  16  86 W22G30    29.68R WCI   3
CROOKSTON      LGT SNOW  16  12  86 NW30      29.87R VSB 1   WCI  -4
$$
  *****  WEATHER ACROSS CENTRAL AND WEST MINNESOTA  *****

CITY           SKY/WX    TMP DP  RH WIND       PRES   REMARKS
BEMIDJI        LGT SNOW  14  10  85 W20G26    29.75R WCI  -4
PARK RAPIDS    LGT SNOW  13   6  74 W20       29.81R WCI  -5
WADENA         LGT SNOW  10   7  85 W18G24    29.87R WCI  -8
DETROIT LAKES  LGT SNOW  12  10  92 W15G23    29.89R WCI  -4
MOORHEAD       CLOUDY    12   7  79 W22G33    29.97R WCI  -7
FERGUS FALLS   LGT SNOW  10   7  85 W21G31    30.02R WCI  -9
ELBOW LAKE     LGT SNOW  11   7  85 NW23G31   29.99S WCI  -9
MORRIS MN      LGT SNOW  12   7  79 W31G37    30.01R WCI -10
STAPLES        LGT SNOW  10   7  85 W21G28    29.87R WCI  -9
WHEATON        CLOUDY    14   9  79 W21G31    30.06R WCI  -4
$$
  *****  WEATHER ELSEWHERE ACROSS MINNESOTA  *****

CITY           SKY/WX    TMP DP  RH WIND       PRES   REMARKS
DULUTH         LGT SNOW  15  10  80 W22G28    29.69R BLWGSNOWWCI  -3
INTRNTL FALLS  LGT SNOW  22  20  92 W12G17    29.58R VSB 1   WCI  10
ELY            LGT SNOW  18  16  93 W14       29.58R WCI   4
CLOQUET        LGT SNOW  16  10  79 SW14G22   29.73R WCI   1
BRAINERD       FLURRIES  13   7  77 W22G31    29.84R WCI  -6
HIBBING        LGT SNOW  17  13  84 W9        29.65R FOG     WCI   6
ALEXANDRIA     LGT SNOW  11   7  84 W23G30    29.95R FOG     WCI  -9
SAINT CLOUD    CLOUDY    14   8  77 W21G29    29.94R WCI  -4
MINNEAPOLIS    FLURRIES  17   8  67 W16G25    29.98R WCI   2
$$

  *****  WEATHER ACROSS SOUTH DAKOTA  *****

CITY           SKY/WX    TMP DP  RH WIND       PRES   REMARKS
SIOUX FALLS    PTCLDY     9   3  77 W21G30    30.17R WCI -11
BROOKINGS      CLEAR      6   1  80 NW21G28   30.09R WCI -14
WATERTOWN      CLOUDY     6   1  80 NW25G32   30.06S WCI -16
HURON          CLOUDY    11   3  70 NW21G26   30.19S WCI  -8
SISSETON         N/A     11   4  73 NW24G33   30.04R WCI  -9
ABERDEEN       CLOUDY     9   0  67 W25G37    30.14R WCI -12
MITCHELL       CLOUDY    11   4  73 NW20G28   30.23R WCI  -7
PIERRE         CLOUDY     8   2  76 NW23G31   30.23S WCI -13
MOBRIDGE       CLOUDY     9  -1  64 NW28G35   30.17R WCI -13
RAPID CITY     CLOUDY     2  -5  72 N15       30.22R WCI -17
$$

  *****  SOME WEATHER IN NEARBY STATES *****

CITY           SKY/WX    TMP DP  RH WIND       PRES   REMARKS
GLASGOW MT     PTCLDY    -1  -9  68 W25       30.41R WCI -25
GREAT FALLS MT CLOUDY    -3  -8  79 W5        30.41R WCI -13
CHEYENNE WY    LGT SNOW   0  -5  79 N13G22    30.00R WCI -18
SCOTTSBLUFF NE LGT SNOW   7   1  76 NW15      30.21R WCI -10
OMAHA NE       CLOUDY    16   7  67 NW14      30.25R WCI   2
DES MOINES IA  CLOUDY    18   9  68 NW15      30.18R WCI   4
DAVENPORT IA   CLOUDY    22  15  75 W18G25    30.13R WCI   7
CHICAGO IL     CLOUDY    25  17  72 W13G22    30.06R WCI  14
EAU CLAIRE WI  CLOUDY    17  10  74 W17G31    29.93R WCI   1
LA CROSSE WI   CLOUDY    19  10  68 SW16      30.04R WCI   4
$$

  *****  SOME NATIONAL WEATHER *****

CITY           SKY/WX    TMP DP  RH WIND       PRES   REMARKS
LA GUARDIA NY  CLOUDY    42  38  85 N8        29.96R
RALEIGH NC     PTCLDY    38  37  97 SW3       30.03R
ATLANTA GA     PTCLDY    44  41  89 NW6       30.02R
NEW ORLEANS LA CLOUDY    56  55  97 NE3       30.08R
OKLAHOMA CITY  CLOUDY    33  19  56 NE9       30.08R
ALBUQUERQUE NM CLOUDY    39  25  57 W6        29.94R
SALT LAKE CITY CLOUDY    24  14  65 N9        30.14R WCI  14
LOS ANGELES CA MOCLDY    53  42  66 CALM      30.04R
BOISE ID       MOCLDY    14  12  92 S8        30.28R FOG     WCI   3
SEATTLE WA     PTCLDY    30  22  72 NE9       30.41S WCI  22
$$

*** WEATHER ACROSS MANITOBA...SASKATCHEWAN AND ONTARIO ***
                ***ONTARIO***

CITY           SKY/WX    TMP DP  RH WIND       PRES   REMARKS
GERALDTON      MOCLDY    19  19 100 CALM      29.46S
THUNDER BAY    LGT SNOW  23  19  86 W7        29.55R WCI  15
SIOUX LOOKOUT  FLURRIES  23  21  93 W6        29.48S WCI  16
TORONTO        CLOUDY    36  23  60 W24       29.89R
BIG TROUT LK   LGT SNOW  21  19  93 NE12G20   29.73R WCI   9
PICKLE LAKE    LGT SNOW  19  18  93 NE10G20   29.49R VSB 1   WCI   8
DRYDEN         LGT SNOW  21  21 100 W8        29.52R WCI  12
KENORA         LGT SNOW  23  21  93 NW10G17   29.57R VSB 1   WCI  12
$$
                *** MANITOBA***

CITY           SKY/WX    TMP DP  RH WIND       PRES   REMARKS
BRANDON        LGT SNOW  10   5  79 NW30G37   29.99R BLWGSNOWWCI -12
DAUPHIN        LGT SNOW  18  14  86 NW26G35   30.02R VSB 1   WCI  -1
ISLAND LAKE    NOT AVBL
PILOT MOUND      N/A     10   7  85 NW25G33     N/A  WCI -10
THE PAS        CLOUDY    16  10  79 N15G26    30.19R WCI   1
THOMPSON       LGT SNOW  10   7  85 N13G18    30.14R DRFTSNOWWCI  -5
WINNIPEG       FLURRIES  23  21  93 NW20      29.78R WCI   8
LYNN LAKE      FLURRIES   3   0  85 N13       30.29R WCI -14
CHURCHILL      LGT SNOW  16  14  93 N26G38    30.23R VSB 3/4 WCI  -3
GILLAM         FLURRIES  18  14  86 N18G28    30.06R WCI   2
$$
                ***SASKATCHEWAN***

CITY           SKY/WX    TMP DP  RH WIND       PRES   REMARKS
ESTEVAN        LGT SNOW   0  -4  85 NW25G33   30.23R BLWGSNOWWCI -25
KINDERSLEY     PTCLDY    -8 -13  77 NW15      30.42R WCI -29
LLOYDMINSTER   PTCLDY    -6 -11  77 NW15G22   30.44R WCI -27
PRINCE ALBERT  FLURRIES   5   0  78 NW12      30.34R WCI -11
REGINA         CLOUDY     0  -6  78 NW21      30.30R WCI -23
YORKTON        FLURRIES   9   3  78 NW18G32   30.15R WCC1F1C2F2C3F3C4F4C5F5C6F6C7F7C8F8C9F9CaFaCbFbCcFcCdFdCe!



USA.gov is the U.S. government's official web portal to all federal, state and local government web resources and services.